Simultaneous Nadir Overpasses (SNOs) Predictions

Prediction of SNOs between GOES-17 and TERRA Satellite Orbit:

Table of predicted SNOs for the next 14.0 days since TLE Epoch: 5/28/2022
Index Date Time (GOES-17) GOES-17 Lat,Lon TERRA Lat,Lon Distance(km) Time Diff (sec)
1 05/29/2022 07:20:08 -0.04,-137.19 0.41,-134.90 259.12 80
2 05/29/2022 19:38:42 0.04,-137.18 0.67,-140.06 327.61 80
3 05/31/2022 19:29:04 0.04,-137.17 0.03,-137.09 8.30 80
4 06/02/2022 19:16:46 0.03,-137.15 -0.61,-134.13 343.35 80
5 06/03/2022 07:35:28 -0.03,-137.14 -0.46,-139.33 247.40 80
6 06/05/2022 07:25:49 -0.02,-137.12 0.15,-136.35 87.27 80
7 06/05/2022 19:44:23 0.02,-137.11 0.93,-141.51 499.92 80
8 06/07/2022 07:13:31 -0.02,-137.09 0.76,-133.38 421.62 80
9 06/07/2022 19:32:04 0.02,-137.07 0.31,-138.53 165.65 80
10 06/09/2022 19:22:25 0.02,-137.04 -0.32,-135.56 168.22 80
11 06/10/2022 07:41:07 -0.01,-137.03 -0.80,-140.75 422.78 80
